Location: Poughquag
(41.6090°N, 73.6820°W)
Time: 14:42:28
(UTC-04:00)

Tiangong 1 - Visible Passes

Search period start: 30 April 2017 00:00
Search period end: 10 May 2017 00:00
Orbit: 329 x 351 km, 42.8° (Epoch: 28 April)

Date Brightness Start Highest point End Pass type
(mag) Time Alt. Az. Time Alt. Az. Time Alt. Az.
02 May 2.5 21:29:53 10° SW 21:31:16 22° SSW 21:31:16 22° SSW visible
03 May 2.1 21:51:11 10° WSW 21:52:53 32° WSW 21:52:53 32° WSW visible
04 May 1.4 20:37:16 10° SW 20:39:55 36° SSE 20:42:34 10° E visible
04 May 2.8 22:12:43 10° W 22:14:04 25° W 22:14:04 25° W visible
05 May 0.7 20:58:29 10° WSW 21:01:18 74° SSE 21:03:39 14° E visible
05 May 3.7 22:34:15 10° W 22:34:56 16° W 22:34:56 16° W visible
06 May 0.9 21:19:53 10° W 21:22:44 72° N 21:24:15 24° ENE visible
07 May 1.0 21:41:18 10° W 21:44:08 66° N 21:44:39 50° ENE visible
08 May 1.4 22:02:36 10° WNW 22:04:54 54° WNW 22:04:54 54° WNW visible
09 May 1.1 20:48:05 10° W 20:50:56 67° N 20:53:45 10° E visible
09 May 3.0 22:23:50 10° W 22:25:02 22° W 22:25:02 22° W visible
